[[{"header":{"parameterUnit":"m.s-1","parameterCategory":1,"la1":30.2991,"la2":30.254,"lo1":-89.0895,"lo2":-89.0444,"dy":0.0017,"dx":0.0017,"nx":28,"ny":28,"refTime":"2025-11-11T09:00:00:Z","depth":0,"parameterNumber":2,"parameterNumberName":"U-component_of_WINDS"},"data":[0,0,0,0,0,0,0,0,0,0,0,0,0,0,0,0,0,0,0,0,0,0,0,0,0,0,0,0,0,0,0,0,0,0,0,0,0,0,0,0,0,0,0,0,0,0,0,0,0,0,0,0,0,0,0,0,0,0,1.4774,1.4776,0,1.4957,1.4959,1.4961,1.4993,1.4991,1.499,1.4988,1.5175,1.5181,1.5187,0,0,0,0,0,0,0,0,0,0,0,0,0,1.445,1.4456,1.4773,1.4776,1.4778,1.4956,1.4959,1.4961,1.4993,1.4991,1.4989,1.4988,1.5173,1.518,1.5188,0,0,0,0,0,0,0,0,0,0,0,0,0,1.4607,1.4458,1.4773,1.4815,1.4821,1.4956,1.4959,1.4962,1.4993,1.4991,1.4989,1.4987,1.517,1.518,1.5189,1.5294,0,0,1.5218,1.5223,0,0,0,0,0,0,0,0,1.4598,1.4619,1.4807,1.4813,1.4819,1.495,1.4913,1.5073,1.4994,1.4928,1.4988,1.4986,1.5102,1.5117,1.5156,1.5303,1.5311,1.5219,1.5225,1.5229,1.5232,0,0,0,0,0,0,0,1.4588,1.4612,1.4846,1.481,1.4817,1.4825,1.4845,1.4944,1.5025,1.4934,1.4936,1.4958,1.5105,1.5147,1.5161,1.5314,1.5219,1.5228,1.5233,1.5237,1.5555,1.5557,0,0,0,0,0,0,1.4569,1.4602,1.484,1.4851,1.4701,1.4832,1.4855,1.491,1.5025,1.504,1.4959,1.4958,1.5132,1.515,1.5167,1.5297,1.5229,1.5238,1.5244,1.5552,1.5555,1.5558,0,0,0,0,0,0,1.4562,1.459,1.4833,1.4728,1.4759,1.484,1.4902,1.4915,1.4957,1.5044,1.5059,1.4988,1.5131,1.5154,1.5262,1.5304,1.5242,1.5251,1.5549,1.5553,1.5557,1.5558,0,0,0,0,0,0,1.4553,1.4587,1.4629,1.4728,1.4765,1.4925,1.4905,1.492,1.4974,1.4974,1.5074,1.5089,1.5131,1.5248,1.5272,1.5316,1.5259,1.5546,1.5551,1.5556,1.5554,1.5561,1.5567,0,0,0,0,0,1.4541,1.4622,1.4631,1.4659,1.4818,1.4927,1.4948,1.4995,1.4977,1.5019,1.5074,1.5086,1.5296,1.5259,1.5286,1.5334,1.5543,1.5549,1.5555,1.5552,1.556,1.5567,0,0,0,0,0,0,1.4525,1.4636,1.4647,1.4762,1.4835,1.4932,1.4987,1.5002,1.5082,1.5079,1.5133,1.5156,1.5261,1.5308,1.5265,1.5441,1.5418,1.543,1.5406,1.5415,1.5421,1.5407,1.5267,0,0,0,0,0,1.4534,1.4614,1.4707,1.48,1.4836,1.4905,1.4954,1.4984,1.5061,1.5092,1.5156,1.5231,1.5313,1.5367,1.5448,1.5562,1.5583,1.5608,1.5614,1.5619,1.5629,1.5691,1.5703,1.5578,1.5578,1.5578,0,0,1.4555,1.4626,1.4673,1.4798,1.4858,1.4939,1.4931,1.5017,1.5077,1.5106,1.5211,1.5261,1.5347,1.5458,1.5511,1.5501,1.5668,1.5627,1.563,1.5637,1.5698,1.571,1.572,1.5582,1.5581,1.5581,0,0,1.4635,1.4697,1.478,1.4841,1.4932,1.4977,1.4997,1.5092,1.5126,1.5233,1.5256,1.5328,1.547,1.553,1.558,1.5681,1.5694,1.5706,1.574,1.58,1.581,1.5819,1.5854,1.5866,1.5715,1.5715,1.5715,0,1.4649,1.4773,1.4821,1.4907,1.496,1.499,1.5074,1.513,1.5243,1.5279,1.5267,1.5445,1.5506,1.5631,1.5655,1.5695,1.5719,1.5695,1.5804,1.5814,1.5823,1.5857,1.587,1.5716,1.5716,1.5716,1.5716,0,1.4785,1.487,1.4927,1.5035,1.5095,1.518,1.524,1.5295,1.532,1.5366,1.5474,1.5548,1.5644,1.5676,1.57,1.5804,1.5795,1.5793,1.5771,1.5835,1.5867,1.5881,1.5717,1.5717,1.5717,1.5716,0,0,1.486,1.4993,1.5013,1.5062,1.5164,1.523,1.5315,1.5409,1.5455,1.5532,1.5604,1.5723,1.5721,1.5777,1.5809,1.5862,1.5936,1.5853,1.5856,1.5865,1.6053,1.6053,1.6068,1.5945,1.5948,1.595,1.6046,0,1.495,1.5104,1.515,1.5278,1.5357,1.5385,1.546,1.553,1.5575,1.5648,1.5698,1.5781,1.5773,1.5807,1.5861,1.5915,1.5974,1.5909,1.6012,1.6015,1.5988,1.6085,1.6086,1.6173,1.6059,1.6061,1.6063,0,1.5077,1.5155,1.5292,1.5383,1.5417,1.5483,1.5572,1.5642,1.5722,1.5751,1.5813,1.584,1.5929,1.5903,1.6026,1.5981,1.6025,1.6059,1.6063,1.6074,1.6042,1.6098,1.6202,1.6214,1.6084,1.6082,1.6081,0,1.5116,1.5256,1.5355,1.5396,1.5505,1.5551,1.5598,1.5676,1.5729,1.5807,1.5842,1.5929,1.5977,1.6043,1.6093,1.6069,1.6211,1.6189,1.6237,1.6236,1.6265,1.6263,1.6377,1.6296,1.6295,1.6295,1.6295,0,1.5212,1.5294,1.5374,1.5435,1.5527,1.5579,1.5669,1.5717,1.5786,1.5857,1.5887,1.5952,1.6014,1.6087,1.6127,1.6222,1.6244,1.6269,1.6278,1.6266,1.6262,1.6295,1.629,1.6299,1.6298,1.6297,1.6297,0,1.5271,1.5328,1.5438,1.5532,1.5558,1.5621,1.5702,1.5762,1.5808,1.5896,1.592,1.5993,1.608,1.6137,1.6249,1.6275,1.6379,1.6387,1.6352,1.6356,1.6401,1.6395,1.6539,1.656,1.6466,1.6466,1.6467,0,1.5328,1.5392,1.5492,1.5542,1.559,1.5669,1.5723,1.5776,1.5831,1.5927,1.5975,1.6065,1.6139,1.6278,1.634,1.6426,1.6435,1.648,1.6448,1.6434,1.6435,1.643,1.6436,1.6485,1.6486,1.6486,1.6487,0,1.5423,1.5448,1.5525,1.5612,1.5676,1.5747,1.5818,1.5857,1.5922,1.5982,1.6072,1.613,1.6244,1.6332,1.6423,1.6472,1.649,1.6496,1.6512,1.6499,1.6476,1.6488,1.6365,1.6493,1.6492,1.6492,1.6491,1.6491,1.5482,1.5539,1.5619,1.5704,1.5763,1.5828,1.5889,1.5943,1.6019,1.6116,1.6142,1.6236,1.6313,1.6437,1.6487,1.6561,1.6555,1.6578,1.6584,1.6588,1.6588,1.6465,1.6578,1.6578,1.6578,1.6578,1.6578,0,1.5578,1.563,1.5708,1.5806,1.5872,1.5884,1.5963,1.6017,1.61,1.617,1.6243,1.6346,1.6432,1.65,1.6588,1.6634,1.6645,1.6655,1.6652,1.6663,1.6589,1.6566,1.6645,1.6645,1.6645,1.6645,1.6645,1.6645,1.5635,1.5732,1.5767,1.5893,1.5945,1.6037,1.6081,1.6141,1.6198,1.6312,1.6383,1.6427,1.6497,1.659,1.6669,1.6687,1.6718,1.6727,1.6746,1.6676,1.6668,1.6661,1.664,1.6733,1.6733,1.6814,1.6814,1.6815]},{"header":{"parameterUnit":"m.s-1","parameterCategory":1,"la1":30.2991,"la2":30.254,"lo1":-89.0895,"lo2":-89.0444,"dy":0.0017,"dx":0.0017,"nx":28,"ny":28,"refTime":"2025-11-11T09:00:00:Z","depth":0,"parameterNumber":3,"parameterNumberName":"V-component_of_WINDS"},"data":[0,0,0,0,0,0,0,0,0,0,0,0,0,0,0,0,0,0,0,0,0,0,0,0,0,0,0,0,0,0,0,0,0,0,0,0,0,0,0,0,0,0,0,0,0,0,0,0,0,0,0,0,0,0,0,0,0,0,2.733,2.733,0,2.7272,2.7272,2.7271,2.7182,2.7181,2.7179,2.7178,2.7119,2.7119,2.7118,0,0,0,0,0,0,0,0,0,0,0,0,0,2.7364,2.7364,2.733,2.733,2.7329,2.7272,2.7272,2.7271,2.7183,2.7181,2.7179,2.7177,2.7119,2.7119,2.7118,0,0,0,0,0,0,0,0,0,0,0,0,0,2.7332,2.7363,2.733,2.7278,2.7273,2.7273,2.7272,2.7271,2.7183,2.7181,2.7178,2.7176,2.7119,2.7119,2.7118,2.7165,0,0,2.7118,2.7118,0,0,0,0,0,0,0,0,2.7334,2.7331,2.7286,2.7282,2.7276,2.7232,2.7261,2.7235,2.7184,2.7217,2.7178,2.7175,2.7158,2.7155,2.7149,2.7162,2.7159,2.7118,2.7118,2.7118,2.7118,0,0,0,0,0,0,0,2.7336,2.7333,2.7307,2.7286,2.7279,2.7257,2.725,2.7256,2.7202,2.7214,2.7208,2.7202,2.7155,2.7149,2.7147,2.7159,2.7118,2.7118,2.7118,2.7118,2.7204,2.7206,0,0,0,0,0,0,2.7346,2.7335,2.7309,2.7306,2.73,2.7258,2.725,2.7249,2.7201,2.7192,2.7204,2.7198,2.7151,2.7147,2.7145,2.7194,2.7118,2.7118,2.7117,2.7201,2.7204,2.7207,0,0,0,0,0,0,2.7347,2.7345,2.7311,2.7319,2.7313,2.726,2.7259,2.7249,2.7243,2.7194,2.7184,2.7208,2.7149,2.7145,2.716,2.7191,2.7118,2.7117,2.7198,2.7202,2.7205,2.7294,0,0,0,0,0,0,2.7349,2.7346,2.7363,2.732,2.7313,2.7328,2.7261,2.7249,2.7243,2.7235,2.7195,2.7186,2.7147,2.716,2.716,2.7189,2.7117,2.7195,2.72,2.7204,2.7288,2.73,2.7311,0,0,0,0,0,2.735,2.7391,2.7364,2.7362,2.7333,2.733,2.7326,2.728,2.7246,2.7263,2.723,2.7188,2.7188,2.7163,2.7161,2.7191,2.7193,2.7199,2.7204,2.7283,2.7298,2.731,0,0,0,0,0,0,2.744,2.7384,2.7354,2.7382,2.7362,2.7315,2.7335,2.7297,2.7286,2.7278,2.7221,2.7213,2.7235,2.7214,2.7188,2.7232,2.7184,2.7189,2.7245,2.7258,2.7269,2.7273,2.7117,0,0,0,0,0,2.7463,2.7465,2.7416,2.7446,2.7437,2.7388,2.7385,2.7351,2.7327,2.7318,2.7287,2.7266,2.726,2.7258,2.7251,2.7285,2.7274,2.7304,2.7316,2.7325,2.733,2.7344,2.7357,2.7224,2.7224,2.7224,0,0,2.7511,2.748,2.7486,2.7463,2.7443,2.7446,2.7381,2.7388,2.7389,2.7319,2.7331,2.7307,2.7279,2.7303,2.7313,2.7287,2.7364,2.7332,2.734,2.734,2.7351,2.7364,2.7375,2.7228,2.7227,2.7227,0,0,2.7599,2.7577,2.7598,2.7579,2.7549,2.7516,2.7521,2.748,2.7462,2.7473,2.7419,2.742,2.7413,2.7394,2.7384,2.7463,2.7423,2.7463,2.7521,2.7536,2.7546,2.7555,2.7582,2.7592,2.7468,2.7468,2.7468,0,2.7662,2.7664,2.7614,2.7623,2.7614,2.755,2.757,2.7554,2.7524,2.7519,2.7491,2.7479,2.7456,2.7474,2.7493,2.7487,2.749,2.7467,2.7549,2.7557,2.7565,2.759,2.76,2.7473,2.7473,2.7472,2.7472,0,2.7742,2.7745,2.7766,2.7737,2.7731,2.7746,2.7697,2.7696,2.7662,2.7632,2.7642,2.7612,2.7596,2.7598,2.7566,2.7611,2.7596,2.7559,2.7509,2.7583,2.7605,2.7615,2.748,2.7478,2.7477,2.7476,0,0,2.7886,2.7828,2.7837,2.7822,2.7784,2.7784,2.7796,2.778,2.778,2.7761,2.7768,2.7763,2.7728,2.7716,2.7681,2.7694,2.7756,2.7655,2.7653,2.7673,2.7802,2.7829,2.7841,2.7729,2.7731,2.7732,2.7804,0,2.7965,2.7982,2.7936,2.7963,2.7964,2.7903,2.7912,2.789,2.7861,2.7857,2.7826,2.7822,2.7777,2.7769,2.778,2.7747,2.7781,2.7741,2.7734,2.7734,2.7742,2.7853,2.7882,2.7951,2.7812,2.7814,2.7815,0,2.8061,2.8046,2.8073,2.8032,2.803,2.804,2.8021,2.8018,2.799,2.7969,2.7955,2.7913,2.792,2.7873,2.7881,2.7854,2.7849,2.7832,2.7833,2.783,2.7779,2.7851,2.7972,2.7982,2.7828,2.7827,2.7826,0,2.8161,2.8148,2.8162,2.8151,2.8104,2.8112,2.8092,2.8062,2.8055,2.8038,2.8032,2.8017,2.8008,2.7997,2.7951,2.7921,2.7964,2.7913,2.7945,2.7946,2.7956,2.7956,2.8077,2.7955,2.7955,2.7954,2.7954,0,2.8254,2.8273,2.8206,2.8215,2.8233,2.818,2.82,2.8174,2.8148,2.8149,2.8095,2.8098,2.8038,2.8034,2.7999,2.8009,2.8006,2.7988,2.7978,2.7992,2.7994,2.7987,2.7981,2.7957,2.7956,2.7956,2.7955,0,2.8369,2.8325,2.8336,2.829,2.8278,2.8294,2.8254,2.8259,2.8227,2.823,2.8227,2.8177,2.8169,2.8122,2.8104,2.8079,2.8102,2.8084,2.8112,2.8105,2.8139,2.8136,2.8258,2.8271,2.8142,2.8144,2.8145,0,2.843,2.8443,2.8398,2.8395,2.8378,2.8375,2.8367,2.8315,2.8308,2.8277,2.8286,2.8273,2.826,2.825,2.8211,2.8196,2.8175,2.8219,2.8173,2.8186,2.8174,2.8173,2.8173,2.8229,2.8231,2.8232,2.8233,0,2.8544,2.8522,2.8513,2.8496,2.8488,2.8472,2.8453,2.8454,2.8395,2.8391,2.8382,2.8372,2.8352,2.834,2.8318,2.8296,2.8254,2.8248,2.8254,2.8268,2.8283,2.8274,2.8138,2.8245,2.8244,2.8243,2.8242,2.8242,2.8633,2.8641,2.861,2.8602,2.8582,2.8564,2.8567,2.8534,2.8526,2.8506,2.8475,2.847,2.844,2.8405,2.8387,2.8381,2.8358,2.8367,2.8369,2.8372,2.8379,2.8285,2.8377,2.8377,2.8376,2.8376,2.8376,0,2.8743,2.872,2.8712,2.8687,2.868,2.8641,2.8618,2.8614,2.861,2.8585,2.8573,2.8562,2.8549,2.8509,2.8491,2.8494,2.8474,2.8491,2.849,2.8485,2.8402,2.8397,2.8507,2.8507,2.8507,2.8507,2.8507,2.8507,2.8799,2.881,2.8784,2.8784,2.876,2.8754,2.8744,2.8727,2.8707,2.8697,2.8686,2.8659,2.8628,2.8607,2.8593,2.8581,2.8577,2.86,2.8582,2.8504,2.8492,2.848,2.8475,2.86,2.86,2.8665,2.8666,2.8666]}]]